DB8BT-11 Weather Reports


time (UTC)temp
C
wind
direction
speed
KPH
gust
KPH
rain 1hr
cm
rain 24hr
cm
rain mn
cm
humidity
%
barometer
mb
20191017130205 15 225 3.2 9.7 0.00 0.13 0.13 90 1009.6
20191017125204 15 207 3.2 8.0 0.00 0.13 0.13 90 1009.6
20191017124205 15 201 3.2 8.0 0.00 0.13 0.13 89 1009.6
20191017123205 15 238 3.2 14.5 0.00 0.13 0.13 89 1009.6
20191017122204 15 244 4.8 14.5 0.00 0.13 0.13 88 1009.5
20191017121205 15 257 4.8 11.3 0.00 0.13 0.13 88 1009.5
20191017120205 15 261 4.8 12.9 0.00 0.13 0.13 87 1009.5
20191017115204 15 246 4.8 11.3 0.00 0.13 0.13 87 1009.5
20191017114205 15 283 4.8 11.3 0.00 0.13 0.13 88 1009.4
20191017113204 15 255 4.8 9.7 0.00 0.13 0.13 88 1009.6
20191017112205 15 273 4.8 9.7 0.00 0.13 0.13 88 1009.6
20191017111205 15 250 3.2 9.7 0.00 0.13 0.13 88 1009.5
20191017110205 15 229 3.2 9.7 0.00 0.13 0.13 88 1009.5
20191017105205 15 280 3.2 11.3 0.00 0.13 0.13 88 1009.5
20191017104205 15 254 3.2 9.7 0.00 0.13 0.13 88 1009.5
20191017103205 15 265 3.2 11.3 0.00 0.13 0.13 88 1009.5
20191017102204 15 249 4.8 11.3 0.00 0.13 0.13 88 1009.4
20191017101205 15 201 3.2 9.7 0.00 0.13 0.13 89 1009.4
20191017100205 15 258 4.8 9.7 0.00 0.13 0.13 89 1009.3
20191017095205 15 230 4.8 12.9 0.00 0.15 0.13 89 1009.2
20191017094204 15 213 4.8 12.9 0.00 0.15 0.13 88 1009.2
20191017093204 15 214 3.2 8.0 0.00 0.15 0.13 88 1009.1
20191017092205 15 238 3.2 12.9 0.00 0.15 0.13 89 1009.1
20191017091205 15 246 4.8 14.5 0.00 0.15 0.13 88 1009.1
20191017090205 15 245 6.4 14.5 0.00 0.15 0.13 88 1009.0
20191017085205 15 209 6.4 14.5 0.00 0.15 0.13 88 1008.9
20191017084205 15 220 4.8 14.5 0.00 0.15 0.13 87 1008.8
20191017083205 15 266 4.8 14.5 0.00 0.15 0.13 88 1008.7
20191017082205 15 252 4.8 12.9 0.00 0.15 0.13 88 1008.7
20191017081204 15 228 4.8 14.5 0.00 0.15 0.13 88 1008.6
20191017080205 15 239 4.8 14.5 0.00 0.15 0.13 88 1008.5
20191017075204 15 253 4.8 12.9 0.00 0.15 0.13 88 1008.5
20191017074205 14 261 4.8 11.3 0.00 0.15 0.13 89 1008.4
20191017073206 14 238 4.8 11.3 0.00 0.15 0.13 89 1008.4
20191017072204 14 259 4.8 12.9 0.00 0.15 0.13 89 1008.3
20191017071205 14 218 4.8 14.5 0.00 0.15 0.13 89 1008.3
20191017070205 14 253 4.8 17.7 0.00 0.15 0.13 88 1008.1
20191017065204 14 211 4.8 14.5 0.00 0.15 0.13 88 1008.1
20191017064204 13 217 4.8 19.3 0.00 0.18 0.13 89 1007.9
20191017063205 13 230 4.8 16.1 0.00 0.20 0.13 89 1007.9
20191017062208 13 257 4.8 16.1 0.00 0.20 0.13 89 1007.6
20191017061205 13 234 4.8 11.3 0.00 0.20 0.13 89 1007.5
20191017060205 13 227 4.8 11.3 0.00 0.20 0.13 90 1007.4
20191017055204 13 188 4.8 11.3 0.00 0.20 0.13 90 1007.2
20191017054204 13 229 3.2 8.0 0.00 0.20 0.13 90 1007.2
20191017053204 13 236 3.2 12.9 0.00 0.20 0.13 90 1007.1
20191017052204 13 219 4.8 16.1 0.00 0.20 0.13 91 1007.0
20191017051205 13 255 6.4 16.1 0.00 0.20 0.13 91 1007.0
20191017050205 13 211 4.8 11.3 0.00 0.20 0.13 91 1007.0
20191017045205 13 238 4.8 14.5 0.00 0.20 0.13 91 1007.0
20191017044204 13 205 6.4 12.9 0.00 0.23 0.13 91 1007.0
20191017043204 13 190 6.4 12.9 0.00 0.30 0.13 91 1007.0
20191017042205 13 233 6.4 12.9 0.00 0.30 0.13 91 1006.9
20191017041205 13 215 6.4 16.1 0.00 0.30 0.13 92 1007.0
20191017040205 13 171 6.4 16.1 0.00 0.33 0.13 92 1007.0
20191017035205 13 232 4.8 11.3 0.00 0.33 0.13 92 1007.0
20191017034204 13 242 6.4 12.9 0.00 0.33 0.13 93 1006.9
20191017033205 13 192 4.8 12.9 0.00 0.33 0.13 93 1006.9
20191017032205 13 222 6.4 12.9 0.00 0.33 0.13 93 1006.9
20191017031205 13 215 4.8 11.3 0.00 0.33 0.13 93 1007.0
20191017030205 13 259 4.8 14.5 0.00 0.33 0.13 93 1006.9
20191017025205 13 224 6.4 14.5 0.03 0.33 0.13 93 1007.0
20191017024205 13 211 8.0 14.5 0.03 0.33 0.13 93 1007.1
20191017023205 13 193 4.8 12.9 0.03 0.36 0.13 93 1007.2
20191017022206 13 225 6.4 16.1 0.05 0.36 0.13 93 1007.2
20191017021205 13 236 6.4 12.9 0.05 0.38 0.13 93 1007.2
20191017020205 13 229 4.8 12.9 0.05 0.38 0.13 93 1007.1
20191017015206 13 248 4.8 9.7 0.05 0.38 0.10 93 1007.3
20191017014205 13 223 4.8 11.3 0.08 0.41 0.10 93 1007.2
20191017013205 13 203 4.8 11.3 0.10 0.43 0.10 93 1007.3
20191017012205 13 208 4.8 11.3 0.08 0.43 0.08 92 1007.4
20191017011205 13 205 3.2 11.3 0.08 0.43 0.08 92 1007.4
20191017010204 13 227 4.8 12.9 0.05 0.43 0.05 91 1007.5
20191017005204 13 198 4.8 12.9 0.05 0.43 0.05 91 1007.5
20191017004204 13 220 4.8 11.3 0.03 0.41 0.03 91 1007.6
20191017003204 13 211 3.2 12.9 0.00 0.38 0.00 90 1007.5
20191017002206 13 263 4.8 14.5 0.00 0.41 0.00 89 1007.5
20191017001205 14 244 4.8 20.9 0.00 0.41 0.00 89 1007.6
20191017000205 14 267 4.8 14.5 0.00 0.41 0.00 89 1007.6
20191016235206 14 217 4.8 16.1 0.00 0.41 0.00 88 1007.6
20191016234204 14 252 4.8 14.5 0.00 0.43 0.00 88 1007.5
20191016233205 14 246 4.8 22.5 0.00 0.43 0.00 87 1007.5
20191016232204 14 225 4.8 12.9 0.00 0.43 0.00 87 1007.5
20191016231204 14 240 4.8 12.9 0.00 0.48 0.00 87 1007.5
20191016230204 14 232 4.8 14.5 0.00 0.48 0.00 88 1007.5
20191016225204 14 266 4.8 12.9 0.00 0.51 0.00 88 1007.4
20191016224204 14 208 4.8 11.3 0.00 0.53 0.00 88 1007.4
20191016223204 14 244 4.8 14.5 0.00 0.61 0.00 89 1007.4
20191016222205 14 241 4.8 14.5 0.00 0.66 0.00 89 1007.4
20191016221205 14 254 4.8 12.9 0.00 0.76 0.00 89 1007.4
20191016220205 14 236 4.8 14.5 0.00 0.84 0.84 89 1007.5
20191016215205 13 203 6.4 22.5 0.00 0.89 0.84 89 1007.5
20191016214206 13 242 4.8 22.5 0.00 0.97 0.84 89 1007.5
20191016213208 13 248 6.4 16.1 0.00 0.99 0.84 89 1007.5
20191016212205 14 218 4.8 14.5 0.00 1.09 0.84 88 1007.6
20191016211205 14 188 4.8 16.1 0.00 1.68 0.84 87 1007.6
20191016210205 13 191 4.8 14.5 0.00 1.68 0.84 88 1007.7
20191016205205 13 198 3.2 9.7 0.00 1.68 0.84 89 1007.6
20191016204205 13 214 4.8 12.9 0.00 1.68 0.84 89 1007.6
20191016203206 13 229 4.8 12.9 0.00 1.68 0.84 89 1007.7
20191016202205 13 223 6.4 12.9 0.00 1.68 0.84 90 1007.7
20191016201205 13 200 4.8 11.3 0.00 1.68 0.84 90 1007.7
20191016200205 13 226 4.8 11.3 0.00 1.68 0.84 90 1007.7
20191016195206 13 243 3.2 14.5 0.00 1.68 0.84 90 1007.6
20191016194205 13 215 4.8 16.1 0.00 1.68 0.84 90 1007.7
20191016193205 13 223 6.4 16.1 0.00 1.68 0.84 90 1007.7
20191016192206 13 219 4.8 12.9 0.00 1.68 0.84 91 1007.6
20191016191204 13 221 6.4 14.5 0.00 1.68 0.84 91 1007.7
20191016190205 13 249 6.4 14.5 0.00 1.68 0.84 91 1007.7
20191016185204 13 211 6.4 14.5 0.00 1.68 0.84 92 1007.6
20191016184205 13 229 6.4 11.3 0.00 1.68 0.84 92 1007.6
20191016183205 13 225 6.4 14.5 0.00 1.68 0.84 92 1007.7
20191016182205 13 183 6.4 17.7 0.00 1.68 0.84 91 1007.7
20191016181205 13 202 6.4 16.1 0.00 1.68 0.84 91 1007.7
20191016180204 13 201 6.4 14.5 0.00 1.68 0.84 91 1007.8
20191016175205 13 196 6.4 14.5 0.00 1.68 0.84 90 1007.9
20191016174205 13 202 6.4 12.9 0.00 1.68 0.84 89 1007.9
20191016173205 13 202 4.8 11.3 0.00 1.68 0.84 88 1007.9
20191016172205 13 221 4.8 11.3 0.00 1.68 0.84 87 1007.9
20191016171204 13 236 4.8 11.3 0.00 1.68 0.84 87 1007.9
20191016170205 13 233 4.8 14.5 0.00 1.68 0.84 86 1007.9
20191016165205 13 266 4.8 12.9 0.00 1.68 0.84 85 1007.9
20191016164204 14 227 4.8 11.3 0.00 1.68 0.84 84 1007.8
20191016163205 14 186 4.8 9.7 0.00 1.68 0.84 84 1007.6
20191016162205 14 217 3.2 11.3 0.00 1.68 0.84 83 1007.7
20191016161205 14 225 4.8 19.3 0.00 1.68 0.84 82 1007.8
20191016160204 15 216 6.4 16.1 0.00 1.68 0.84 79 1007.7
20191016155205 15 204 3.2 14.5 0.00 1.68 0.84 78 1007.6
20191016154205 15 196 4.8 11.3 0.00 1.68 0.84 77 1007.6